This is the latest recevied weather packets stored in our database for station/object WB6ANP. If no packets are shown the sender has not sent any weather packets the latest 10 day(s).
| Time | Temp. | Humidity | Pressure | Rain* | Wind** | Luminosity | Snow |
|---|---|---|---|---|---|---|---|
| 1777772658 | 16.67° C | 68% | 1019.2 hPa | 0 mm | - | 0 W/m² | - |
| 1777772356 | 17.22° C | 67% | 1019.1 hPa | 0 mm | - | 0 W/m² | - |
| 1777772052 | 17.22° C | 65% | 1019 hPa | 0 mm | - | 0 W/m² | - |
| 1777771749 | 17.78° C | 61% | 1018.9 hPa | 0 mm | - | 0 W/m² | - |
| 1777771448 | 17.78° C | 61% | 1019.2 hPa | 0 mm | - | 1 W/m² | - |
| 1777771143 | 18.33° C | 62% | 1019.2 hPa | 0 mm | - | 2 W/m² | - |
| 1777770840 | 19.44° C | 56% | 1019.1 hPa | 0 mm | - | 4 W/m² | - |
| 1777770537 | 20° C | 52% | 1019 hPa | 0 mm | - | 7 W/m² | - |
| 1777770234 | 21.11° C | 51% | 1018.9 hPa | 0 mm | - | 9 W/m² | - |
| 1777769931 | 21.67° C | 45% | 1019 hPa | 0 mm | - | 15 W/m² | - |
| 1777769629 | 22.22° C | 45% | 1018.8 hPa | 0 mm | - | 20 W/m² | - |
| 1777769324 | 22.78° C | 42% | 1019.1 hPa | 0 mm | - | 25 W/m² | - |
| 1777769022 | 22.78° C | 41% | 1019.3 hPa | 0 mm | - | 30 W/m² | - |
| 1777768719 | 23.33° C | 42% | 1019 hPa | 0 mm | - | 35 W/m² | - |
| 1777768416 | 23.33° C | 42% | 1018.8 hPa | 0 mm | - | 40 W/m² | - |
| 1777768113 | 23.33° C | 41% | 1019 hPa | 0 mm | - | 46 W/m² | - |
| 1777767810 | 23.33° C | 40% | 1019 hPa | 0 mm | - | 53 W/m² | - |
| 1777767507 | 23.33° C | 38% | 1018.9 hPa | 0 mm | - | 66 W/m² | - |
| 1777767203 | 23.89° C | 38% | 1018.9 hPa | 0 mm | - | 78 W/m² | - |
| 1777766900 | 24.44° C | 36% | 1019 hPa | 0 mm | - | 91 W/m² | - |
| 1777766598 | 24.44° C | 35% | 1019.1 hPa | 0 mm | - | 105 W/m² | - |
| 1777766295 | 24.44° C | 35% | 1019.1 hPa | 0 mm | - | 115 W/m² | - |
| 1777765992 | 23.89° C | 35% | 1019.1 hPa | 0 mm | - | 133 W/m² | - |
| 1777765689 | 23.89° C | 36% | 1018.9 hPa | 0 mm | - | 147 W/m² | - |
| 1777765386 | 24.44° C | 37% | 1019.1 hPa | 0 mm | - | 178 W/m² | - |
* Rain latest hour (hover to see other rain measurements)
** Current wind speed in m/s (hover to see current wind gust speed)